TimeCST,TemperatureF,Dew PointF,Humidity,Sea Level PressureIn,VisibilityMPH,Wind Direction,Wind SpeedMPH,Gust SpeedMPH,PrecipitationIn,Events,Conditions,WindDirDegrees,DateUTC
12:00 AM,67,65,92,29.86,12,North,4.6,,,,Clear,10,2013-09-09 06:00:00
12:00 AM,68.0,64.4,88,30.03,-9999.0,North,4.6,-,N/A,,Clear,10,2013-09-09 06:00:00
1:00 AM,66.2,62.6,88,30.01,-9999.0,NNE,4.6,-,N/A,,Clear,30,2013-09-09 07:00:00
2:00 AM,-9999,-9999,N/A,30.00,-9999.0,East,4.6,-,N/A,,Clear,80,2013-09-09 08:00:00
3:00 AM,64.4,60.8,88,30.00,-9999.0,NE,2.3,-,N/A,,Clear,40,2013-09-09 09:00:00
4:00 AM,64.4,60.8,88,30.01,-9999.0,NE,4.6,-,N/A,,Clear,50,2013-09-09 10:00:00
5:00 AM,64.4,60.8,88,30.02,-9999.0,East,4.6,-,N/A,,Clear,90,2013-09-09 11:00:00
6:00 AM,66.2,60.8,83,30.02,-9999.0,East,3.5,-,N/A,,Clear,80,2013-09-09 12:00:00
7:00 AM,71.6,62.6,73,30.04,-9999.0,East,3.5,-,N/A,,Clear,80,2013-09-09 13:00:00
8:00 AM,77.0,62.6,61,30.04,6.2,SW,4.6,-,N/A,,Mostly Cloudy,230,2013-09-09 14:00:00
9:00 AM,77,65,57,29.87,12,West,6.9,,,,Scattered Clouds,270,2013-09-09 15:00:00
9:00 AM,77.0,64.4,65,30.05,6.2,West,6.9,-,N/A,,Scattered Clouds,270,2013-09-09 15:00:00
10:00 AM,80.6,64.4,58,30.04,6.2,WSW,8.1,-,N/A,,Mostly Cloudy,240,2013-09-09 16:00:00
11:00 AM,80.6,66.2,61,30.03,6.2,West,12.7,-,N/A,,Mostly Cloudy,260,2013-09-09 17:00:00
12:00 PM,81,69,58,29.83,12,WSW,15.0,,,,Overcast,240,2013-09-09 18:00:00
12:00 PM,80.6,68.0,65,30.01,6.2,WSW,15.0,-,N/A,,Mostly Cloudy,240,2013-09-09 18:00:00
1:00 PM,77.0,68.0,74,-9999,6.2,WSW,17.3,-,N/A,Thunderstorm,Scattered Clouds,250,2013-09-09 19:00:00
2:00 PM,73.4,69.8,88,29.97,6.2,WSW,12.7,-,N/A,Rain-Thunderstorm,Light Rain,250,2013-09-09 20:00:00
2:40 PM,71.6,69.8,94,-9999,1.2,WSW,10.4,-,N/A,Rain,Light Rain,240,2013-09-09 20:40:00
3:00 PM,71,70,95,29.83,2,WSW,9.2,,,Rain,Light Rain,240,2013-09-09 21:00:00
3:00 PM,71.6,69.8,94,29.98,2.5,WSW,9.2,-,N/A,Rain,Light Rain,240,2013-09-09 21:00:00
4:00 PM,69.8,69.8,100,29.99,2.5,WSW,8.1,-,N/A,Rain,Rain,250,2013-09-09 22:00:00
5:00 PM,69.8,68.0,94,30.00,1.2,West,6.9,-,N/A,Rain,Rain,280,2013-09-09 23:00:00
6:00 PM,69,50,40,29.89,9,NW,5.8,,,Rain,Light Rain,320,2013-09-10 00:00:00
6:00 PM,69.8,68.0,94,30.03,6.2,NW,5.8,-,N/A,Rain,Rain,320,2013-09-10 00:00:00
7:00 PM,68.0,68.0,100,30.03,6.2,NNW,4.6,-,N/A,,Scattered Clouds,340,2013-09-10 01:00:00
8:00 PM,68.0,66.2,94,30.05,6.2,NW,3.5,-,N/A,,Scattered Clouds,320,2013-09-10 02:00:00
9:00 PM,68.0,66.2,94,30.05,6.2,Calm,Calm,-,N/A,Fog,Patches of Fog,0,2013-09-10 03:00:00
10:00 PM,68.0,66.2,94,30.05,6.2,NNE,3.5,-,N/A,Fog,Patches of Fog,20,2013-09-10 04:00:00
11:00 PM,66.2,66.2,100,30.05,6.2,East,2.3,-,N/A,,Mostly Cloudy,90,2013-09-10 05:00:00